Data No.,UTC Date,UTC Time,Latitude,Longitude,Course(deg),Temp(degC),Sal(psu)
32,2017/9/9,11:25:00,42-36.23N,141-36.83E,179,19.073,32.4914
33,2017/9/9,11:26:00,42-35.94N,141-36.83E,179,19.479,32.5373
34,2017/9/9,11:27:00,42-35.63N,141-36.83E,179,19.482,32.5176
35,2017/9/9,11:28:00,42-35.32N,141-36.84E,179,19.297,32.5054
36,2017/9/9,11:29:00,42-35.01N,141-36.84E,179,19.261,32.5136
37,2017/9/9,11:30:00,42-34.69N,141-36.85E,179,19.189,32.5768
38,2017/9/9,11:31:00,42-34.37N,141-36.85E,179,19.196,32.6102
39,2017/9/9,11:32:00,42-34.06N,141-36.86E,179,19.341,32.6557
40,2017/9/9,11:33:00,42-33.75N,141-36.87E,179,19.148,32.6661
41,2017/9/9,11:34:00,42-33.43N,141-36.87E,179,18.791,32.6939
42,2017/9/9,11:35:00,42-33.12N,141-36.88E,178,18.524,32.7546
43,2017/9/9,11:36:00,42-32.81N,141-36.89E,178,18.673,32.8326
44,2017/9/9,11:37:00,42-32.49N,141-36.90E,178,18.866,32.8724
45,2017/9/9,11:38:00,42-32.18N,141-36.91E,178,18.88,32.8869
46,2017/9/9,11:39:00,42-31.86N,141-36.93E,178,18.93,32.9079
47,2017/9/9,11:40:00,42-31.55N,141-36.94E,178,18.883,32.9529
48,2017/9/9,11:41:00,42-31.24N,141-36.95E,178,18.856,32.9831
49,2017/9/9,11:42:00,42-30.92N,141-36.96E,178,18.669,32.9775
50,2017/9/9,11:43:00,42-30.61N,141-36.98E,178,18.404,32.9539
51,2017/9/9,11:44:00,42-30.29N,141-36.99E,177,18.453,32.9327
52,2017/9/9,11:45:00,42-29.98N,141-37.01E,178,18.489,32.9257
53,2017/9/9,11:46:00,42-29.66N,141-37.02E,178,18.449,32.921
54,2017/9/9,11:47:00,42-29.34N,141-37.04E,178,18.417,32.918
55,2017/9/9,11:48:00,42-29.03N,141-37.05E,179,18.545,32.9175
56,2017/9/9,11:49:00,42-28.71N,141-37.05E,180,18.639,32.9253
57,2017/9/9,11:50:00,42-28.39N,141-37.04E,180,18.677,32.9254
58,2017/9/9,11:51:00,42-28.08N,141-37.04E,180,18.708,32.953
59,2017/9/9,11:52:00,42-27.76N,141-37.03E,180,18.896,32.9966
60,2017/9/9,11:53:00,42-27.45N,141-37.02E,180,18.941,33.0314
61,2017/9/9,11:54:00,42-27.13N,141-37.02E,180,18.991,33.0624
62,2017/9/9,11:55:00,42-26.81N,141-37.01E,181,19.083,33.0812
63,2017/9/9,11:56:00,42-26.49N,141-37.00E,181,19.02,33.0959
64,2017/9/9,11:57:00,42-26.18N,141-36.98E,181,18.955,33.107
65,2017/9/9,11:58:00,42-25.85N,141-36.97E,181,18.82,33.1062
66,2017/9/9,11:59:00,42-25.54N,141-36.95E,182,18.552,33.1074
67,2017/9/9,12:00:00,42-25.21N,141-36.95E,180,18.588,33.0781
68,2017/9/9,12:01:00,42-24.90N,141-36.94E,180,18.943,33.0642
69,2017/9/9,12:02:00,42-24.58N,141-36.94E,180,19.366,33.1139
70,2017/9/9,12:03:00,42-24.25N,141-36.94E,180,19.795,33.167
71,2017/9/9,12:04:00,42-23.94N,141-36.94E,180,19.974,33.2791
72,2017/9/9,12:05:00,42-23.62N,141-36.94E,180,20.064,33.3276
73,2017/9/9,12:06:00,42-23.29N,141-36.93E,181,20.021,33.345
74,2017/9/9,12:07:00,42-22.97N,141-36.92E,181,19.954,33.3126
75,2017/9/9,12:08:00,42-22.65N,141-36.91E,182,19.914,33.2412
76,2017/9/9,12:09:00,42-22.32N,141-36.89E,182,19.947,33.1983
77,2017/9/9,12:10:00,42-22.00N,141-36.87E,182,20.01,33.1864
78,2017/9/9,12:11:00,42-21.68N,141-36.85E,182,19.994,33.2084
79,2017/9/9,12:12:00,42-21.36N,141-36.84E,182,19.895,33.2388
80,2017/9/9,12:13:00,42-21.04N,141-36.82E,182,19.879,33.2154
81,2017/9/9,12:14:00,42-20.72N,141-36.80E,182,19.864,33.1578
82,2017/9/9,12:15:00,42-20.40N,141-36.78E,182,19.9,33.1337
83,2017/9/9,12:16:00,42-20.08N,141-36.77E,182,19.903,33.1522
84,2017/9/9,12:17:00,42-19.76N,141-36.75E,182,19.921,33.1921
85,2017/9/9,12:18:00,42-19.45N,141-36.74E,182,19.946,33.2476
86,2017/9/9,12:19:00,42-19.13N,141-36.72E,182,19.89,33.2813
87,2017/9/9,12:20:00,42-18.81N,141-36.70E,182,19.907,33.3435
88,2017/9/9,12:21:00,42-18.50N,141-36.69E,181,19.854,33.3838
89,2017/9/9,12:22:00,42-18.18N,141-36.67E,182,19.843,33.3787
90,2017/9/9,12:23:00,42-17.87N,141-36.66E,181,19.8,33.3525
91,2017/9/9,12:24:00,42-17.55N,141-36.65E,181,19.774,33.3502
92,2017/9/9,12:25:00,42-17.23N,141-36.64E,181,19.754,33.3311
93,2017/9/9,12:26:00,42-16.92N,141-36.62E,181,19.744,33.3063
94,2017/9/9,12:27:00,42-16.61N,141-36.62E,181,19.783,33.3354
95,2017/9/9,12:28:00,42-16.29N,141-36.60E,181,19.838,33.3677
96,2017/9/9,12:29:00,42-15.98N,141-36.59E,181,19.864,33.3558
97,2017/9/9,12:30:00,42-15.66N,141-36.59E,181,19.882,33.3371
98,2017/9/9,12:31:00,42-15.35N,141-36.58E,181,19.9,33.3391
99,2017/9/9,12:32:00,42-15.04N,141-36.57E,181,19.934,33.3347
100,2017/9/9,12:33:00,42-14.73N,141-36.56E,181,19.952,33.3359
101,2017/9/9,12:34:00,42-14.42N,141-36.55E,181,19.99,33.3398
102,2017/9/9,12:35:00,42-14.11N,141-36.55E,181,20.023,33.3501
103,2017/9/9,12:36:00,42-13.80N,141-36.54E,180,20.048,33.364
104,2017/9/9,12:37:00,42-13.49N,141-36.53E,181,20.054,33.3739
105,2017/9/9,12:38:00,42-13.18N,141-36.53E,180,20.054,33.384
106,2017/9/9,12:39:00,42-12.87N,141-36.52E,180,20.075,33.3842
107,2017/9/9,12:40:00,42-12.56N,141-36.52E,180,20.094,33.3917
108,2017/9/9,12:41:00,42-12.25N,141-36.51E,180,20.123,33.3981
109,2017/9/9,12:42:00,42-11.93N,141-36.51E,180,20.154,33.4053
110,2017/9/9,12:43:00,42-11.62N,141-36.50E,180,20.197,33.4077
111,2017/9/9,12:44:00,42-11.30N,141-36.50E,180,20.228,33.4296
112,2017/9/9,12:45:00,42-10.99N,141-36.49E,181,20.244,33.4406
113,2017/9/9,12:46:00,42-10.68N,141-36.49E,180,20.262,33.4513
114,2017/9/9,12:47:00,42-10.36N,141-36.48E,181,20.263,33.4551
115,2017/9/9,12:48:00,42-10.05N,141-36.47E,180,20.281,33.4593
116,2017/9/9,12:49:00,42-09.73N,141-36.47E,180,20.269,33.4703
117,2017/9/9,12:50:00,42-09.42N,141-36.46E,180,20.235,33.4745
118,2017/9/9,12:51:00,42-09.10N,141-36.45E,181,20.262,33.4767
119,2017/9/9,12:52:00,42-08.77N,141-36.45E,181,20.238,33.4761
120,2017/9/9,12:53:00,42-08.46N,141-36.44E,180,20.3,33.4706
121,2017/9/9,12:54:00,42-08.14N,141-36.43E,181,20.291,33.4669
122,2017/9/9,12:55:00,42-07.82N,141-36.42E,181,20.327,33.467
123,2017/9/9,12:56:00,42-07.50N,141-36.41E,181,20.299,33.4647
124,2017/9/9,12:57:00,42-07.18N,141-36.40E,181,20.335,33.4606
125,2017/9/9,12:58:00,42-06.85N,141-36.39E,181,20.308,33.4575
126,2017/9/9,12:59:00,42-06.54N,141-36.38E,181,19.929,33.4338
127,2017/9/9,13:00:00,42-06.22N,141-36.37E,181,19.98,33.4139
128,2017/9/9,13:01:00,42-05.90N,141-36.36E,181,20.196,33.4283
129,2017/9/9,13:02:00,42-05.58N,141-36.35E,181,19.813,33.3942
130,2017/9/9,13:03:00,42-05.25N,141-36.34E,182,19.733,33.3787
131,2017/9/9,13:04:00,42-04.94N,141-36.33E,181,20.003,33.3792
132,2017/9/9,13:05:00,42-04.62N,141-36.31E,182,20.182,33.3784
133,2017/9/9,13:06:00,42-04.29N,141-36.31E,179,20.148,33.3391
134,2017/9/9,13:07:00,42-03.98N,141-36.32E,178,20.136,33.3215
135,2017/9/9,13:08:00,42-03.66N,141-36.34E,176,20.225,33.3141
136,2017/9/9,13:09:00,42-03.33N,141-36.36E,176,20.275,33.3123
137,2017/9/9,13:10:00,42-03.02N,141-36.38E,177,20.201,33.2954
138,2017/9/9,13:11:00,42-02.71N,141-36.40E,178,20.276,33.2785
139,2017/9/9,13:12:00,42-02.39N,141-36.42E,178,20.276,33.2693
140,2017/9/9,13:13:00,42-02.07N,141-36.44E,177,20.272,33.2525
141,2017/9/9,13:14:00,42-01.75N,141-36.46E,177,20.308,33.2424
142,2017/9/9,13:15:00,42-01.43N,141-36.48E,177,20.324,33.2409
143,2017/9/9,13:16:00,42-01.11N,141-36.50E,176,20.362,33.2515
144,2017/9/9,13:17:00,42-00.79N,141-36.53E,177,20.388,33.2529
145,2017/9/9,13:18:00,42-00.48N,141-36.55E,177,20.369,33.2548
146,2017/9/9,13:19:00,42-00.17N,141-36.56E,177,20.398,33.2629
147,2017/9/9,13:20:00,41-59.85N,141-36.58E,178,20.382,33.2597
148,2017/9/9,13:21:00,41-59.53N,141-36.60E,177,20.363,33.2532
149,2017/9/9,13:22:00,41-59.22N,141-36.61E,178,20.364,33.2583
150,2017/9/9,13:23:00,41-58.90N,141-36.63E,178,20.326,33.2751
151,2017/9/9,13:24:00,41-58.59N,141-36.64E,178,20.28,33.2944
152,2017/9/9,13:25:00,41-58.26N,141-36.66E,178,20.248,33.3137
153,2017/9/9,13:26:00,41-57.95N,141-36.67E,177,20.29,33.3427
154,2017/9/9,13:27:00,41-57.63N,141-36.69E,177,20.32,33.4008
155,2017/9/9,13:28:00,41-57.31N,141-36.70E,177,20.336,33.4605
156,2017/9/9,13:29:00,41-56.99N,141-36.72E,177,20.34,33.4725
157,2017/9/9,13:30:00,41-56.67N,141-36.74E,177,20.292,33.4752
158,2017/9/9,13:31:00,41-56.35N,141-36.75E,177,20.281,33.4761
159,2017/9/9,13:32:00,41-56.03N,141-36.78E,177,20.28,33.445
160,2017/9/9,13:33:00,41-55.70N,141-36.80E,177,20.239,33.4118
161,2017/9/9,13:34:00,41-55.38N,141-36.81E,177,20.194,33.3827
162,2017/9/9,13:35:00,41-55.06N,141-36.83E,177,20.094,33.3497
163,2017/9/9,13:36:00,41-54.74N,141-36.85E,177,20.11,33.3068
164,2017/9/9,13:37:00,41-54.42N,141-36.87E,177,20.036,33.2587
165,2017/9/9,13:38:00,41-54.11N,141-36.89E,177,20.009,33.2058
166,2017/9/9,13:39:00,41-53.79N,141-36.91E,177,19.912,33.1508
167,2017/9/9,13:40:00,41-53.47N,141-36.92E,177,19.873,33.0903
168,2017/9/9,13:41:00,41-53.14N,141-36.94E,177,19.853,33.0479
169,2017/9/9,13:42:00,41-52.83N,141-36.96E,177,19.786,33.0161
170,2017/9/9,13:43:00,41-52.51N,141-36.98E,177,19.753,32.9948
171,2017/9/9,13:44:00,41-52.18N,141-37.00E,177,19.787,33.0001
172,2017/9/9,13:45:00,41-51.87N,141-37.02E,177,19.795,33.0162
173,2017/9/9,13:46:00,41-51.55N,141-37.04E,177,19.842,33.0187
174,2017/9/9,13:47:00,41-51.24N,141-37.06E,177,19.9,33.0265
175,2017/9/9,13:48:00,41-50.92N,141-37.08E,177,19.771,33.022
176,2017/9/9,13:49:00,41-50.60N,141-37.10E,178,19.733,33.0372
177,2017/9/9,13:50:00,41-50.29N,141-37.11E,178,19.754,33.0331
178,2017/9/9,13:51:00,41-49.98N,141-37.12E,178,19.809,33.0183
179,2017/9/9,13:52:00,41-49.67N,141-37.13E,178,19.808,33.0323
180,2017/9/9,13:53:00,41-49.35N,141-37.14E,178,19.686,33.0409
181,2017/9/9,13:54:00,41-49.05N,141-37.15E,177,19.718,33.0419
182,2017/9/9,13:55:00,41-48.74N,141-37.17E,178,19.772,33.0407
183,2017/9/9,13:56:00,41-48.43N,141-37.18E,177,19.824,33.0423
184,2017/9/9,13:57:00,41-48.13N,141-37.20E,177,19.896,33.0462
185,2017/9/9,13:58:00,41-47.83N,141-37.20E,179,19.977,33.0627
186,2017/9/9,13:59:00,41-47.51N,141-37.20E,180,20.042,33.0692
187,2017/9/9,14:00:00,41-47.21N,141-37.20E,180,20.037,33.0762
188,2017/9/9,14:01:00,41-46.90N,141-37.20E,180,20.1,33.0946
189,2017/9/9,14:02:00,41-46.60N,141-37.20E,180,20.17,33.1089
190,2017/9/9,14:03:00,41-46.29N,141-37.20E,179,20.42,33.0997
191,2017/9/9,14:04:00,41-45.98N,141-37.20E,178,20.807,33.1218
192,2017/9/9,14:05:00,41-45.68N,141-37.22E,177,21.432,33.2506
193,2017/9/9,14:06:00,41-45.38N,141-37.23E,178,21.514,33.6603
194,2017/9/9,14:07:00,41-45.07N,141-37.25E,177,21.504,33.8474
195,2017/9/9,14:08:00,41-44.77N,141-37.27E,176,21.822,33.8885
196,2017/9/9,14:09:00,41-44.46N,141-37.30E,175,21.95,33.9421
197,2017/9/9,14:10:00,41-44.16N,141-37.33E,176,21.839,34.008
198,2017/9/9,14:11:00,41-43.86N,141-37.35E,177,22.056,34.0472
199,2017/9/9,14:12:00,41-43.55N,141-37.37E,177,22.273,34.0357
200,2017/9/9,14:13:00,41-43.26N,141-37.39E,177,22.19,34.0209
201,2017/9/9,14:14:00,41-42.96N,141-37.41E,177,21.993,34.0149
202,2017/9/9,14:15:00,41-42.66N,141-37.43E,177,21.855,34.0174
203,2017/9/9,14:16:00,41-42.37N,141-37.45E,177,21.89,34.02
204,2017/9/9,14:17:00,41-42.09N,141-37.47E,176,21.873,34.0229
205,2017/9/9,14:18:00,41-41.79N,141-37.50E,176,21.864,34.0187
206,2017/9/9,14:19:00,41-41.50N,141-37.52E,177,21.846,34.0123
207,2017/9/9,14:20:00,41-41.21N,141-37.54E,177,21.724,34.0023
208,2017/9/9,14:21:00,41-40.90N,141-37.55E,178,21.733,33.9746
209,2017/9/9,14:22:00,41-40.61N,141-37.55E,180,21.756,33.9699
210,2017/9/9,14:23:00,41-40.31N,141-37.55E,179,21.738,33.9751
211,2017/9/9,14:24:00,41-40.02N,141-37.55E,180,21.735,33.9766
212,2017/9/9,14:25:00,41-39.72N,141-37.55E,180,21.759,33.974
213,2017/9/9,14:26:00,41-39.42N,141-37.54E,181,21.779,33.9725
214,2017/9/9,14:27:00,41-39.12N,141-37.53E,181,21.779,33.9736
215,2017/9/9,14:28:00,41-38.83N,141-37.53E,181,21.779,33.9759
216,2017/9/9,14:29:00,41-38.52N,141-37.52E,180,21.795,33.9809
217,2017/9/9,14:30:00,41-38.22N,141-37.51E,181,21.791,33.9829
218,2017/9/9,14:31:00,41-37.92N,141-37.50E,182,21.795,33.9866
219,2017/9/9,14:32:00,41-37.62N,141-37.49E,181,21.802,33.9899
220,2017/9/9,14:33:00,41-37.32N,141-37.47E,181,21.801,33.9907
221,2017/9/9,14:34:00,41-37.02N,141-37.46E,181,21.827,33.9913
222,2017/9/9,14:35:00,41-36.71N,141-37.44E,182,21.853,33.9919
223,2017/9/9,14:36:00,41-36.40N,141-37.43E,182,21.835,33.9903
224,2017/9/9,14:37:00,41-36.09N,141-37.41E,182,21.761,33.9899
225,2017/9/9,14:38:00,41-35.79N,141-37.39E,183,21.708,33.9923
226,2017/9/9,14:39:00,41-35.47N,141-37.37E,182,21.642,33.9937
227,2017/9/9,14:40:00,41-35.17N,141-37.35E,180,21.725,33.9947
228,2017/9/9,14:41:00,41-34.86N,141-37.37E,177,21.759,33.9942
229,2017/9/9,14:42:00,41-34.54N,141-37.39E,176,21.808,33.9913
230,2017/9/9,14:43:00,41-34.23N,141-37.41E,177,21.829,33.9885
231,2017/9/9,14:44:00,41-33.92N,141-37.43E,178,21.804,33.986
232,2017/9/9,14:45:00,41-33.60N,141-37.44E,178,21.513,33.9861
233,2017/9/9,14:46:00,41-33.28N,141-37.45E,178,21.491,33.9902
234,2017/9/9,14:47:00,41-32.98N,141-37.46E,179,21.541,33.9933
235,2017/9/9,14:48:00,41-32.66N,141-37.46E,179,21.575,33.9961
236,2017/9/9,14:49:00,41-32.34N,141-37.47E,179,21.61,33.9968
237,2017/9/9,14:50:00,41-32.02N,141-37.47E,179,21.568,33.998
238,2017/9/9,14:51:00,41-31.71N,141-37.47E,179,21.55,33.9979
239,2017/9/9,14:52:00,41-31.40N,141-37.47E,180,21.501,33.9997
240,2017/9/9,14:53:00,41-31.08N,141-37.46E,180,21.486,34.0015
241,2017/9/9,14:54:00,41-30.77N,141-37.46E,180,21.494,34.005
242,2017/9/9,14:55:00,41-30.46N,141-37.46E,180,21.503,34.0072
243,2017/9/9,14:56:00,41-30.14N,141-37.45E,181,21.52,34.0084
244,2017/9/9,14:57:00,41-29.83N,141-37.44E,181,21.614,34.0094
245,2017/9/9,14:58:00,41-29.52N,141-37.43E,181,21.665,33.9753
246,2017/9/9,14:59:00,41-29.20N,141-37.41E,181,21.773,33.9465
247,2017/9/9,15:00:00,41-28.88N,141-37.40E,181,21.736,33.9518
248,2017/9/9,15:01:00,41-28.57N,141-37.39E,180,21.446,33.9596
249,2017/9/9,15:02:00,41-28.25N,141-37.38E,181,21.19,33.8819
250,2017/9/9,15:03:00,41-27.93N,141-37.37E,181,20.975,33.8081
251,2017/9/9,15:04:00,41-27.60N,141-37.37E,180,20.816,33.7549
252,2017/9/9,15:05:00,41-27.29N,141-37.36E,180,20.82,33.7162
253,2017/9/9,15:06:00,41-26.98N,141-37.36E,180,20.851,33.6905
254,2017/9/9,15:07:00,41-26.66N,141-37.35E,180,20.916,33.7174
255,2017/9/9,15:08:00,41-26.34N,141-37.35E,179,20.598,33.7527
256,2017/9/9,15:09:00,41-26.03N,141-37.35E,180,20.135,33.7611
257,2017/9/9,15:10:00,41-25.70N,141-37.35E,180,20.117,33.4737
258,2017/9/9,15:11:00,41-25.40N,141-37.41E,166,20.147,33.3176
259,2017/9/9,15:12:00,41-25.09N,141-37.51E,165,20.136,33.2752
260,2017/9/9,15:13:00,41-24.80N,141-37.61E,165,20.154,33.2454
261,2017/9/9,15:14:00,41-24.50N,141-37.72E,165,20.158,33.2227
262,2017/9/9,15:15:00,41-24.19N,141-37.82E,166,20.184,33.2116
263,2017/9/9,15:16:00,41-23.89N,141-37.92E,165,20.156,33.2088
264,2017/9/9,15:17:00,41-23.59N,141-38.03E,165,20.236,33.2129
265,2017/9/9,15:18:00,41-23.28N,141-38.13E,166,20.306,33.2015
266,2017/9/9,15:19:00,41-22.97N,141-38.23E,165,20.294,33.1733
267,2017/9/9,15:20:00,41-22.66N,141-38.34E,165,20.227,33.1432
268,2017/9/9,15:21:00,41-22.36N,141-38.44E,165,20.272,33.1277
269,2017/9/9,15:22:00,41-22.06N,141-38.54E,166,20.266,33.1172
270,2017/9/9,15:23:00,41-21.76N,141-38.63E,166,20.319,33.1161
271,2017/9/9,15:24:00,41-21.45N,141-38.73E,166,20.334,33.1027
272,2017/9/9,15:25:00,41-21.14N,141-38.83E,166,20.33,33.0785
273,2017/9/9,15:26:00,41-20.83N,141-38.93E,166,20.303,33.059
274,2017/9/9,15:27:00,41-20.53N,141-39.02E,166,20.338,33.044
275,2017/9/9,15:28:00,41-20.24N,141-39.12E,166,20.372,33.0405
276,2017/9/9,15:29:00,41-19.93N,141-39.21E,166,20.418,33.0409
277,2017/9/9,15:30:00,41-19.62N,141-39.31E,166,20.417,33.0448
278,2017/9/9,15:31:00,41-19.33N,141-39.40E,166,20.362,33.0494
279,2017/9/9,15:32:00,41-19.02N,141-39.49E,167,20.324,33.0497
280,2017/9/9,15:33:00,41-18.72N,141-39.59E,166,20.362,33.0385
281,2017/9/9,15:34:00,41-18.41N,141-39.68E,166,20.351,33.0314
282,2017/9/9,15:35:00,41-18.12N,141-39.78E,166,20.322,33.0261
283,2017/9/9,15:36:00,41-17.82N,141-39.88E,165,20.202,33.0211
284,2017/9/9,15:37:00,41-17.51N,141-39.98E,165,20.146,32.997
285,2017/9/9,15:38:00,41-17.21N,141-40.08E,166,20.105,32.9687
286,2017/9/9,15:39:00,41-16.92N,141-40.17E,166,20.029,32.954
287,2017/9/9,15:40:00,41-16.61N,141-40.27E,166,20.019,32.9447
288,2017/9/9,15:41:00,41-16.31N,141-40.37E,166,20.032,32.9395
289,2017/9/9,15:42:00,41-16.01N,141-40.47E,166,20.095,32.9413
290,2017/9/9,15:43:00,41-15.70N,141-40.57E,165,20.162,32.9489
291,2017/9/9,15:44:00,41-15.40N,141-40.67E,165,20.209,32.9597
292,2017/9/9,15:45:00,41-15.10N,141-40.77E,165,20.22,32.9841
293,2017/9/9,15:46:00,41-14.80N,141-40.88E,165,20.241,33.0188
294,2017/9/9,15:47:00,41-14.50N,141-40.98E,165,20.184,33.0287
295,2017/9/9,15:48:00,41-14.19N,141-41.08E,165,20.084,33.015
296,2017/9/9,15:49:00,41-13.88N,141-41.19E,165,19.98,32.9877
297,2017/9/9,15:50:00,41-13.59N,141-41.29E,165,19.918,32.9628
298,2017/9/9,15:51:00,41-13.28N,141-41.40E,164,19.845,32.9144
299,2017/9/9,15:52:00,41-12.98N,141-41.50E,165,19.884,32.8814
300,2017/9/9,15:53:00,41-12.67N,141-41.61E,164,19.886,32.8692
301,2017/9/9,15:54:00,41-12.37N,141-41.72E,164,19.896,32.8619
302,2017/9/9,15:55:00,41-12.07N,141-41.82E,164,19.89,32.8589
303,2017/9/9,15:56:00,41-11.77N,141-41.93E,165,19.913,32.8592
304,2017/9/9,15:57:00,41-11.46N,141-42.04E,164,19.919,32.8573
305,2017/9/9,15:58:00,41-11.16N,141-42.15E,164,19.908,32.8644
306,2017/9/9,15:59:00,41-10.86N,141-42.26E,164,19.89,32.8771
307,2017/9/9,16:00:00,41-10.55N,141-42.37E,164,19.873,32.8941
308,2017/9/9,16:01:00,41-10.25N,141-42.48E,164,19.893,32.9068
309,2017/9/9,16:02:00,41-09.94N,141-42.59E,164,19.915,32.9298
310,2017/9/9,16:03:00,41-09.64N,141-42.70E,165,19.971,32.9429
311,2017/9/9,16:04:00,41-09.34N,141-42.80E,164,20.024,32.9683
312,2017/9/9,16:05:00,41-09.04N,141-42.91E,164,20.032,32.9998
313,2017/9/9,16:06:00,41-08.74N,141-43.02E,164,20.021,33.0276
314,2017/9/9,16:07:00,41-08.43N,141-43.13E,164,19.914,33.0527
315,2017/9/9,16:08:00,41-08.13N,141-43.24E,164,19.752,33.0478
316,2017/9/9,16:09:00,41-07.84N,141-43.34E,165,19.747,33.006
317,2017/9/9,16:10:00,41-07.53N,141-43.45E,165,19.762,32.9735
318,2017/9/9,16:11:00,41-07.23N,141-43.56E,164,19.78,32.9637
319,2017/9/9,16:12:00,41-06.93N,141-43.66E,164,19.765,32.9628
320,2017/9/9,16:13:00,41-06.63N,141-43.77E,165,19.81,32.9707
321,2017/9/9,16:14:00,41-06.33N,141-43.88E,165,19.968,32.9858
322,2017/9/9,16:15:00,41-06.03N,141-43.99E,164,19.935,33.0397
323,2017/9/9,16:16:00,41-05.73N,141-44.09E,164,19.711,33.0706
324,2017/9/9,16:17:00,41-05.43N,141-44.20E,164,19.497,33.0621
325,2017/9/9,16:18:00,41-05.13N,141-44.31E,164,19.39,33.0449
326,2017/9/9,16:19:00,41-04.83N,141-44.42E,164,19.455,33.0269
327,2017/9/9,16:20:00,41-04.54N,141-44.53E,164,19.38,33.0269
328,2017/9/9,16:21:00,41-04.23N,141-44.65E,163,19.38,33.0234
329,2017/9/9,16:22:00,41-03.93N,141-44.76E,164,19.363,33.0083
330,2017/9/9,16:23:00,41-03.64N,141-44.87E,163,19.425,32.9964
331,2017/9/9,16:24:00,41-03.34N,141-44.99E,163,19.47,32.9795
332,2017/9/9,16:25:00,41-03.04N,141-45.11E,163,19.556,32.9702
333,2017/9/9,16:26:00,41-02.74N,141-45.23E,162,19.589,32.9547
334,2017/9/9,16:27:00,41-02.45N,141-45.35E,163,19.632,32.9388
335,2017/9/9,16:28:00,41-02.16N,141-45.47E,162,19.563,32.9191
336,2017/9/9,16:29:00,41-01.86N,141-45.59E,162,19.454,32.9026
337,2017/9/9,16:30:00,41-01.57N,141-45.71E,162,19.514,32.9093
338,2017/9/9,16:31:00,41-01.28N,141-45.83E,162,19.699,32.9575
339,2017/9/9,16:32:00,41-00.99N,141-45.95E,162,19.813,32.9996
340,2017/9/9,16:33:00,41-00.69N,141-46.07E,162,20.03,33.0362
341,2017/9/9,16:34:00,41-00.41N,141-46.19E,162,20.162,33.0947
342,2017/9/9,16:35:00,41-00.11N,141-46.31E,162,20.252,33.1726
343,2017/9/9,16:36:00,40-59.82N,141-46.43E,162,20.317,33.2598
344,2017/9/9,16:37:00,40-59.53N,141-46.55E,162,20.356,33.2851
345,2017/9/9,16:38:00,40-59.23N,141-46.68E,162,20.394,33.2734
346,2017/9/9,16:39:00,40-58.94N,141-46.80E,161,20.406,33.2526
347,2017/9/9,16:40:00,40-58.64N,141-46.93E,162,20.416,33.2365
348,2017/9/9,16:41:00,40-58.36N,141-47.05E,162,20.373,33.2306
349,2017/9/9,16:42:00,40-58.07N,141-47.17E,161,20.388,33.2348
350,2017/9/9,16:43:00,40-57.77N,141-47.30E,162,20.346,33.2296
351,2017/9/9,16:44:00,40-57.48N,141-47.42E,162,20.238,33.2164
352,2017/9/9,16:45:00,40-57.20N,141-47.54E,162,20.214,33.19
353,2017/9/9,16:46:00,40-56.90N,141-47.66E,162,20.263,33.1683
354,2017/9/9,16:47:00,40-56.61N,141-47.78E,162,20.288,33.1642
355,2017/9/9,16:48:00,40-56.32N,141-47.90E,162,20.27,33.1682
356,2017/9/9,16:49:00,40-56.03N,141-48.02E,163,20.221,33.1602
357,2017/9/9,16:50:00,40-55.73N,141-48.14E,162,20.274,33.1392
358,2017/9/9,16:51:00,40-55.43N,141-48.26E,162,20.367,33.1158
359,2017/9/9,16:52:00,40-55.14N,141-48.38E,162,20.365,33.1027
360,2017/9/9,16:53:00,40-54.85N,141-48.50E,162,20.324,33.0976
361,2017/9/9,16:54:00,40-54.55N,141-48.63E,162,20.341,33.1032
362,2017/9/9,16:55:00,40-54.26N,141-48.75E,163,20.348,33.1121
363,2017/9/9,16:56:00,40-53.97N,141-48.87E,162,20.337,33.1156
364,2017/9/9,16:57:00,40-53.67N,141-48.99E,163,20.355,33.1193
365,2017/9/9,16:58:00,40-53.37N,141-49.11E,162,20.345,33.121
366,2017/9/9,16:59:00,40-53.08N,141-49.23E,162,20.346,33.1204
367,2017/9/9,17:00:00,40-52.78N,141-49.35E,162,20.388,33.1223
368,2017/9/9,17:01:00,40-52.49N,141-49.46E,163,20.395,33.1205
369,2017/9/9,17:02:00,40-52.19N,141-49.57E,163,20.403,33.1198
370,2017/9/9,17:03:00,40-51.89N,141-49.69E,163,20.379,33.1175
371,2017/9/9,17:04:00,40-51.59N,141-49.81E,163,20.356,33.1121
372,2017/9/9,17:05:00,40-51.30N,141-49.92E,163,20.322,33.1088
373,2017/9/9,17:06:00,40-51.00N,141-50.03E,164,20.301,33.1111
374,2017/9/9,17:07:00,40-50.70N,141-50.14E,164,20.211,33.1124
375,2017/9/9,17:08:00,40-50.40N,141-50.24E,167,20.187,33.1176
376,2017/9/9,17:09:00,40-50.10N,141-50.32E,168,20.17,33.1343
377,2017/9/9,17:10:00,40-49.80N,141-50.41E,167,20.042,33.136
378,2017/9/9,17:11:00,40-49.50N,141-50.49E,169,20.113,33.1403
379,2017/9/9,17:12:00,40-49.19N,141-50.57E,169,20.251,33.1554
380,2017/9/9,17:13:00,40-48.90N,141-50.64E,168,20.318,33.1423
381,2017/9/9,17:14:00,40-48.59N,141-50.71E,169,20.446,33.1341
382,2017/9/9,17:15:00,40-48.29N,141-50.79E,169,20.507,33.1369
383,2017/9/9,17:16:00,40-47.99N,141-50.86E,169,20.506,33.1477
384,2017/9/9,17:17:00,40-47.69N,141-50.94E,169,20.48,33.2018
385,2017/9/9,17:18:00,40-47.39N,141-51.01E,168,20.453,33.2562
386,2017/9/9,17:19:00,40-47.09N,141-51.09E,168,20.359,33.3035
387,2017/9/9,17:20:00,40-46.79N,141-51.18E,167,20.273,33.3484
388,2017/9/9,17:21:00,40-46.50N,141-51.26E,168,20.139,33.3698
389,2017/9/9,17:22:00,40-46.20N,141-51.34E,168,20.126,33.3782
390,2017/9/9,17:23:00,40-45.91N,141-51.42E,168,20.053,33.3686
391,2017/9/9,17:24:00,40-45.62N,141-51.50E,168,20.085,33.3678
392,2017/9/9,17:25:00,40-45.32N,141-51.58E,168,19.983,33.3828
393,2017/9/9,17:26:00,40-45.03N,141-51.66E,168,19.979,33.395
394,2017/9/9,17:27:00,40-44.72N,141-51.74E,168,20.133,33.4006
395,2017/9/9,17:28:00,40-44.42N,141-51.81E,168,20.048,33.3725
396,2017/9/9,17:29:00,40-44.12N,141-51.90E,168,20.249,33.3425
397,2017/9/9,17:30:00,40-43.82N,141-51.98E,168,20.048,33.3294
398,2017/9/9,17:31:00,40-43.52N,141-52.06E,168,19.913,33.3214
399,2017/9/9,17:32:00,40-43.21N,141-52.14E,169,19.897,33.3019
400,2017/9/9,17:33:00,40-42.91N,141-52.22E,168,19.993,33.2912
401,2017/9/9,17:34:00,40-42.61N,141-52.30E,167,19.88,33.2763
402,2017/9/9,17:35:00,40-42.31N,141-52.38E,167,19.944,33.2955
403,2017/9/9,17:36:00,40-42.00N,141-52.46E,169,20.05,33.3073
404,2017/9/9,17:37:00,40-41.70N,141-52.54E,169,20.075,33.2929
405,2017/9/9,17:38:00,40-41.39N,141-52.62E,168,20.095,33.2826
406,2017/9/9,17:39:00,40-41.09N,141-52.70E,168,20.091,33.2718
407,2017/9/9,17:40:00,40-40.80N,141-52.78E,168,19.956,33.2594
408,2017/9/9,17:41:00,40-40.49N,141-52.86E,168,19.915,33.2168
409,2017/9/9,17:42:00,40-40.18N,141-52.94E,168,19.915,33.2303
410,2017/9/9,17:43:00,40-39.88N,141-53.02E,168,19.979,33.2397
411,2017/9/9,17:44:00,40-39.58N,141-53.10E,169,19.898,33.2592
412,2017/9/9,17:45:00,40-39.27N,141-53.17E,169,19.461,33.2406
413,2017/9/9,17:46:00,40-38.98N,141-53.25E,169,19.399,33.1169